SCP
0 0 0 0 0 0 0 0 0 0 0 0 0 0 0 0 0 0 0 0 0 0 0 0 0 0 0 0 0 0 0 0 0 0 0 0 0 0 0 0 0 0 0
0 0 0 0 0 0 0 0 0 0 0 0 0 0 0 0 0 0 0 0 0 0 0 0 0 0 0 0 0 0 0 0 0 0 0 0 0 0 0 0 0 0 0
0 0 0 0 0 0 0 0 0 0 0 0 0 0 0 0 0 0 0 0 0 0 0 0 0 0 0 0 0 0 0 0 0 0 0 0 0 0 0 0 0 0 0
0 0 0 0 0 0 0 0 0 0 0 0 0 0 0 0 0 0 0 0 0 0 0 0 0 0 0 0 0 0 0 0 0 0 0 0 0 0 0 0 0 0 0
0 0 0 0 0 0 0 0 0 0 0 0 0 0 0 0 0 0 0 0 0 0 0 0 0 0 0 0 0 0 0 0 0 0 0 0 0 0 0 0 0 0 0
0 0 0 0 0 0 0 0 0 0 0 0 0 0 0 0 0 0 0 0 0 0 0 0 0 0 0 0 0 0 0 0 0 0 0 0 0 0 0 0 0 0 0
0 0 0 0 1 0 0 0 0 0 0 0 0 0 0 0 0 0 0 0 0 0 0 0 0 0 0 0 0 0 0 0 0 0 0 0 0 0 0 0 0 0 0
0 0 0 1 1 1 1 0 0 0 0 0 0 0 0 0 0 0 0 0 0 0 0 0 0 0 0 0 0 0 -0 -0 -0 -0 -0 0 0 0 0 0 0 0 0
0 0 0 0 1 1 1 1 0 0 0 0 0 0 0 0 0 0 0 0 0 0 0 0 0 0 0 0 0 0 -0 -0 -0 -0 -0 -0 0 0 0 0 0 0 0
0 0 0 0 0 0 0 0 0 0 0 0 0 0 0 0 0 0 0 0 0 0 0 0 0 0 0 0 0 0 -0 -0 -0 -0 -0 -0 0 0 0 1 0 0 0
0 0 0 0 0 0 0 0 0 0 0 0 0 0 0 0 0 0 0 0 0 0 0 0 0 0 0 0 0 0 0 0 0 0 -0 -0 0 0 0 1 1 1 1
0 0 0 0 0 0 0 0 0 0 0 0 0 0 0 0 0 0 0 0 0 0 0 0 0 0 0 0 0 0 0 0 0 0 0 0 0 0 1 1 1 1 1
1 1 0 0 0 0 0 0 0 0 0 0 0 0 0 0 0 0 0 0 0 0 1 1 1 1 1 1 0 0 0 0 0 0 0 0 0 0 1 1 1 1 1
1 1 1 0 0 0 0 0 0 0 0 0 0 0 0 0 0 0 0 0 0 0 1 1 1 1 1 1 0 0 0 0 0 0 0 0 0 0 1 1 1 1 1
2 1 1 1 1 1 1 1 1 1 0 0 0 0 1 1 0 0 0 0 0 1 1 1 1 1 0 0 0 0 0 0 0 0 0 0 0 0 1 1 1 1 1
2 2 2 1 1 1 1 1 1 1 1 1 1 1 1 1 1 1 1 1 1 1 1 0 0 0 0 0 0 0 0 0 0 0 0 0 0 0 1 1 1 1 1
2 2 2 2 2 2 2 2 1 1 1 1 1 1 1 1 1 1 1 1 1 1 0 0 0 0 0 0 0 0 0 0 0 0 0 0 0 0 1 1 1 1 1
2 2 2 2 2 2 2 2 2 1 1 1 1 1 1 1 1 1 1 1 0 0 0 0 0 0 0 0 0 0 0 0 0 0 0 0 0 0 1 1 1 1 1
1 1 1 2 2 2 2 2 2 1 1 1 1 1 1 1 1 1 0 0 0 0 0 0 0 0 0 0 0 0 0 0 0 0 0 0 0 0 0 1 1 1 1
1 1 1 1 1 1 1 1 1 1 1 1 1 0 0 0 0 0 0 0 0 0 0 0 0 0 0 0 0 0 0 0 0 0 0 0 0 0 0 0 1 1 1
1 1 1 1 1 1 1 1 1 0 0 0 0 0 0 0 0 0 0 0 0 0 0 0 0 0 0 0 0 0 0 0 0 0 0 0 0 0 0 0 0 1 1
0 0 0 0 0 0 0 0 0 0 0 0 0 0 0 0 0 0 0 0 0 0 0 0 0 0 0 0 0 0 0 0 0 0 0 0 0 0 0 0 0 0 1
0 0 0 0 0 0 0 0 0 0 0 0 0 0 0 0 0 0 0 0 0 0 0 0 0 0 0 0 0 0 0 0 0 0 0 0 0 0 0 0 0 0 0
0 0 0 0 0 0 0 0 0 0 0 0 0 0 0 0 0 0 0 0 0 0 0 0 0 0 0 0 0 0 0 0 0 0 0 0 0 0 0 0 0 0 0
0 0 0 0 0 0 0 0 0 0 0 0 0 0 0 0 0 0 0 0 0 0 0 0 0 0 0 0 0 0 0 0 0 0 0 0 0 0 0 0 0 0 0
0 0 0 0 0 0 0 0 0 0 0 0 0 0 0 0 0 0 0 0 0 0 0 0 0 0 0 0 0 0 0 0 0 0 0 0 0 0 0 0 0 0 0
Wind_Speed
11 12 19 19 19 18 17 16 16 16 16 16 16 16 16 16 16 16 15 15 14 13 13 12 12 12 12 12 13 13 13 13 13 13 13 13 12 11 11 13 13 10 14
15 15 20 19 19 18 17 17 16 16 16 15 15 15 15 15 15 14 14 14 13 13 12 12 11 11 11 11 11 11 11 11 11 11 12 11 11 9 10 12 12 8 13
18 14 18 19 19 18 18 17 16 16 16 16 15 15 14 14 14 14 13 13 12 12 11 11 10 10 10 9 9 9 9 8 8 9 9 5 6 9 11 13 13 13 12
18 13 15 21 20 19 18 17 17 16 16 15 15 15 14 14 13 13 13 12 11 11 10 10 9 9 8 8 7 7 6 6 6 6 4 4 4 10 12 14 13 12 12
15 11 15 22 21 19 18 17 17 16 16 15 15 14 14 14 13 12 12 11 11 10 10 9 9 8 7 6 6 5 5 4 4 3 2 4 4 10 12 13 14 13 12
13 11 16 22 21 20 19 18 17 16 16 15 15 14 14 13 13 12 12 11 11 10 10 9 9 8 8 7 6 5 5 5 4 2 3 4 5 11 14 14 14 14 13
13 11 14 21 21 20 19 18 17 17 16 16 15 14 14 13 13 12 12 11 11 10 10 10 9 9 9 8 8 7 7 7 4 3 3 4 6 13 15 15 15 15 14
17 13 13 21 21 20 19 18 17 17 16 16 15 15 14 13 13 12 12 12 11 11 11 11 11 10 10 10 9 9 9 9 6 4 3 4 9 14 16 16 16 15 15
15 14 11 13 16 20 20 19 18 17 17 16 16 15 15 14 13 13 12 13 13 13 12 12 12 12 12 11 11 11 11 11 6 4 6 3 9 15 17 17 16 16 16
13 13 11 10 10 10 12 18 18 18 17 17 16 16 15 14 14 14 12 13 14 14 14 14 14 14 13 12 13 13 13 11 6 5 4 5 9 14 17 17 17 16 16
12 11 11 11 9 9 8 14 15 17 16 16 14 16 14 7 7 8 12 15 16 16 17 16 16 15 14 13 14 14 12 5 5 5 5 10 12 15 17 17 17 17 17
14 13 11 11 11 9 9 8 6 8 8 8 6 8 6 5 6 9 11 17 18 18 18 18 17 15 12 6 9 13 5 6 6 6 7 13 14 16 18 17 17 17 17
15 14 13 12 11 11 7 6 5 5 5 6 7 8 6 5 5 6 4 7 9 12 9 10 11 7 6 5 5 5 6 6 5 5 7 14 15 16 18 18 18 18 17
15 15 14 13 11 11 8 7 7 6 5 6 8 8 6 4 5 5 4 4 4 3 4 5 4 6 7 8 7 7 8 6 5 5 7 15 16 16 18 19 19 19 18
14 15 15 13 12 10 8 6 7 6 7 7 6 7 8 6 5 4 3 3 3 3 3 4 4 6 6 6 7 7 7 7 7 7 5 13 15 15 16 18 20 20 19
9 11 12 12 11 10 8 6 5 5 5 5 5 7 8 5 4 4 3 2 2 2 3 3 5 5 4 4 5 6 6 6 7 7 6 8 14 15 16 18 19 19 19
1 3 9 10 8 8 7 6 4 3 3 3 3 4 5 5 4 3 2 2 2 2 3 2 3 2 3 3 5 5 4 5 6 6 6 5 6 12 16 18 19 19 20
5 5 2 5 3 4 4 4 2 2 2 2 2 3 4 4 4 3 2 2 1 1 1 1 1 1 2 2 3 4 4 4 6 6 5 6 5 6 11 18 19 19 20
5 4 4 3 2 1 1 2 2 2 1 2 3 3 3 3 3 3 2 1 1 1 0 1 0 1 1 2 3 4 4 4 5 6 6 7 7 7 6 10 17 18 19
7 4 4 5 6 5 3 3 2 1 0 1 2 3 4 3 4 3 2 2 2 2 1 0 1 1 1 2 3 4 4 4 4 5 6 6 6 7 7 8 7 10 16
5 5 4 6 4 2 0 1 1 1 1 1 3 4 5 5 4 3 2 2 2 2 1 1 1 0 1 1 1 3 4 4 4 4 4 4 5 5 5 6 5 5 6
3 3 5 3 1 2 0 1 2 1 1 2 2 2 4 5 5 4 4 3 3 2 1 1 1 1 1 0 1 1 3 5 4 3 2 2 4 3 4 6 5 6 5
5 3 3 3 1 2 2 0 0 1 2 2 1 1 2 3 4 4 5 4 3 3 2 2 2 3 1 1 1 2 1 2 4 4 3 2 2 2 3 4 5 5 6
6 5 4 3 3 3 3 2 2 1 0 1 2 1 2 2 3 3 4 5 4 3 3 3 3 3 3 1 1 1 3 3 2 4 4 3 4 3 4 4 4 4 4
6 6 5 5 5 4 4 3 3 2 1 1 1 1 2 2 2 2 3 3 4 4 4 4 3 3 3 3 2 2 2 2 3 3 5 4 3 3 3 4 3 3 3
5 5 5 6 6 6 6 5 5 4 3 3 4 4 3 3 2 3 2 2 3 3 4 4 5 5 4 4 3 3 3 3 3 3 4 4 4 4 4 3 3 3 2
Wind_Direction
157 161 153 149 146 144 141 138 134 130 128 125 123 121 119 118 118 120 123 124 123 121 121 120 119 118 117 116 116 116 118 119 121 122 122 121 120 121 124 125 123 120 120
152 158 153 150 148 147 145 143 139 137 135 132 130 127 125 124 124 124 125 126 127 126 125 124 123 123 122 121 120 120 122 124 126 126 126 125 123 122 128 133 129 132 129
147 154 152 150 150 150 149 147 145 143 141 139 137 135 133 132 131 131 131 131 131 131 131 130 130 129 129 128 127 127 127 129 132 134 133 132 134 129 126 132 135 136 135
147 150 152 152 152 152 152 152 150 148 147 145 144 142 141 140 140 139 139 139 140 140 140 141 140 140 140 141 140 139 139 142 147 153 153 168 169 150 141 139 142 143 142
145 149 156 154 154 155 156 156 155 153 152 151 150 149 149 148 148 148 148 149 150 151 153 155 154 155 158 162 165 167 171 176 187 196 203 203 193 171 161 154 153 153 153
147 152 159 157 157 158 159 160 160 159 158 158 158 158 158 158 158 158 159 161 163 165 167 169 171 173 177 184 193 203 213 220 221 224 240 219 194 187 177 169 164 163 163
150 156 162 160 161 162 164 165 165 165 165 165 165 166 167 168 169 170 171 174 177 179 181 184 188 190 195 201 209 220 232 243 239 229 235 222 201 195 186 180 174 172 173
155 159 164 165 165 167 168 170 170 170 171 172 174 176 177 179 181 183 185 188 191 194 197 199 202 204 208 212 218 227 236 248 256 252 235 221 210 204 195 188 183 180 181
157 161 166 169 170 171 173 175 176 177 178 180 182 185 187 190 193 196 198 201 204 206 209 212 214 216 218 219 224 231 238 246 252 261 269 251 217 209 202 195 190 188 188
160 167 170 169 170 172 176 181 183 184 186 188 191 193 196 199 203 208 211 215 217 218 219 220 222 224 225 225 228 233 239 246 246 249 254 255 240 219 210 202 197 195 195
166 174 174 173 173 174 178 188 188 191 194 195 198 202 202 207 210 216 222 224 227 227 226 226 226 229 230 231 233 236 240 233 228 242 246 251 246 230 220 210 204 201 200
175 180 180 179 178 177 186 188 190 196 199 200 200 205 204 202 213 222 229 233 235 234 232 230 228 230 232 231 236 239 236 229 229 240 244 246 245 236 226 217 210 206 204
178 180 182 183 181 183 192 184 191 200 200 206 207 209 209 210 221 231 231 241 240 239 235 233 231 225 223 220 223 226 231 233 232 238 246 251 250 242 231 222 213 211 209
178 184 182 184 183 188 192 188 191 198 200 206 212 210 206 211 218 223 226 231 227 223 218 221 218 222 226 225 224 227 233 232 231 232 245 254 253 244 232 224 217 215 213
182 184 182 182 183 186 188 192 195 201 204 206 205 208 205 208 217 221 224 220 213 206 212 222 224 227 228 232 233 231 232 231 235 231 238 246 243 239 231 225 221 219 218
183 186 183 184 182 179 180 185 188 194 196 195 200 203 199 200 201 202 211 212 208 200 199 209 219 223 225 227 237 236 234 232 232 234 233 240 240 236 230 226 224 224 225
166 184 179 182 179 174 172 176 179 180 166 177 183 178 174 181 187 188 194 214 221 210 202 208 225 220 229 236 245 245 240 237 236 235 234 232 236 236 233 232 227 226 227
30 13 256 168 163 176 165 160 153 137 136 155 146 143 156 166 167 166 170 211 223 205 197 211 223 234 249 249 252 253 249 246 246 243 238 234 230 235 236 236 234 231 230
51 33 334 14 61 27 122 102 97 112 134 137 129 133 149 156 156 154 167 185 161 131 152 226 189 203 248 266 264 259 252 246 246 250 244 239 233 231 231 237 237 236 237
41 43 354 23 15 9 359 38 17 37 81 164 154 159 165 164 158 150 157 156 132 119 100 114 203 229 236 257 278 282 268 256 248 244 245 246 240 236 234 236 237 241 241
35 59 53 52 3 293 195 101 221 233 227 222 206 180 171 166 161 158 164 153 137 139 169 181 171 267 285 296 337 315 300 279 263 252 246 246 247 246 240 233 230 230 237
88 91 101 81 333 7 249 191 227 214 243 239 243 203 187 172 169 163 168 170 158 152 141 147 144 141 269 89 134 337 332 333 328 298 282 257 258 255 248 243 232 227 230
58 56 83 90 63 356 306 356 320 29 17 6 331 260 222 196 183 172 183 179 177 172 184 188 167 160 199 270 170 164 185 278 307 310 307 303 300 285 272 260 242 233 229
43 41 52 58 50 9 1 36 101 100 74 278 272 274 261 225 207 196 198 196 191 185 192 202 179 171 167 223 271 205 196 197 244 304 311 309 307 297 291 281 264 244 234
48 48 41 44 37 18 20 25 40 43 330 302 325 336 320 305 281 247 212 201 202 198 200 203 191 193 186 194 206 218 233 228 214 230 282 303 313 295 287 275 265 255 240
51 51 47 44 33 19 21 19 21 19 0 0 355 343 327 316 308 308 274 226 213 205 211 213 206 206 207 210 212 206 205 216 220 221 254 278 287 285 286 277 262 251 234